Regional Weather Roundup
Issued by NWS

Home | Current Version | Previous Version | Text Only | Print | Product List | Glossary Off
Versions: 1 2 3 4 5 6 7 8 9 10 11 12 13 14 15 16 17 18 19 20 21 22 23 24 25 26 27

000
ASUS45 KBOI 261010
RWRID

IDAHO REGIONAL WEATHER ROUNDUP
NATIONAL WEATHER SERVICE BOISE ID
400 AM MDT THU MAY 26 2016

NOTE: "FAIR" INDICATES FEW OR NO CLOUDS BELOW 12000 FEET
WITH NO SIGNIFICANT WEATHER AND/OR OBSTRUCTIONS TO VISIBILITY

IDZ012-014-261100-
SOUTHWEST IDAHO


CITY           SKY/WX    TMP DP  RH WIND       PRES   REMARKS
BOISE          CLEAR     51  41  68 S6        30.01S
CALDWELL       CLEAR     51  44  77 W8        30.02R
MOUNTAIN HOME  CLOUDY    56  46  67 NW8       30.00S
$$

IDZ016-017-261100-
SOUTHCENTRAL IDAHO


CITY           SKY/WX    TMP DP  RH WIND       PRES   REMARKS
BURLEY         CLEAR     44  38  79 CALM      30.02S
JEROME         PTCLDY    45  39  79 SE6       30.03S
TWIN FALLS     PTCLDY    48  38  68 S14       30.03S
$$

IDZ019>023-261100-
SOUTHEAST IDAHO


CITY           SKY/WX    TMP DP  RH WIND       PRES   REMARKS
IDAHO FALLS    CLEAR     39  37  92 CALM      30.05S
POCATELLO      CLEAR     40  38  93 N3        30.05S
REXBURG        CLEAR     40  38  93 CALM      30.05S
$$

IDZ006-010-011-018-031-032-261100-
CENTRAL IDAHO MOUNTAINS


CITY           SKY/WX    TMP DP  RH WIND       PRES   REMARKS
MCCALL         CLEAR     37  35  92 CALM      30.07S
HAILEY         CLEAR     39  36  87 NW9       30.08F WCI  33
STANLEY          N/A     30  26  85 S3        30.13S
SALMON         CLEAR     39  36  87 CALM      30.05S
CHALLIS        CLEAR     41  35  79 CALM      30.08R
$$

IDZ002-004-006-007-026-261100-
NORTHERN IDAHO


CITY           SKY/WX    TMP DP  RH WIND       PRES   REMARKS
LEWISTON       CLEAR     54  46  74 SE3       30.03R
LOWELL           N/A     50  47  89 CALM      30.08S
COEUR D`ALENE  MOCLDY    57  45  62 CALM      30.00R
MULLAN PASS    CLOUDY    42  38  85 VRB5      30.08S
$$




USA.gov is the U.S. government's official web portal to all federal, state and local government web resources and services.